Wind_Speed
36 36 31 33 36 36 33 34 34 32 36 37 35 36 36 33 30 31 30 30 30 30 30 30 30 33 33 32 32 33 33 33 34 36 37 37 38 40 42 45 48 51 54 56
38 38 37 37 37 38 38 38 36 38 39 39 37 35 33 35 35 34 32 31 30 30 28 28 29 31 33 33 32 34 34 36 37 38 39 40 40 41 43 45 48 51 52 53
42 44 42 42 40 39 40 38 38 40 40 40 39 38 36 36 35 34 34 33 30 29 28 29 29 29 30 30 29 32 34 36 38 39 41 41 43 43 45 46 49 50 52 54
48 45 45 44 41 39 42 39 41 41 41 40 39 41 35 34 36 35 32 31 32 30 29 30 32 32 32 32 32 32 34 36 38 39 40 42 44 45 50 52 52 52 54 54
45 46 43 41 39 41 37 39 41 41 41 41 40 41 41 32 32 31 30 29 30 33 33 33 33 35 35 35 36 38 39 39 40 41 43 43 44 45 49 50 54 54 58 58
38 39 39 38 39 39 39 38 40 42 43 43 39 40 45 39 31 31 31 32 34 36 37 38 39 39 40 39 41 41 43 44 45 45 46 47 48 49 53 54 54 58 60 62
38 38 38 38 38 37 38 40 43 44 44 43 42 42 40 39 35 35 36 37 39 39 40 41 42 45 45 46 43 45 46 47 48 49 49 52 54 55 57 59 63 67 67 68
39 38 37 37 37 39 42 43 44 44 45 45 43 44 42 40 39 40 40 40 42 43 43 44 46 49 52 52 52 52 53 54 53 55 56 57 58 61 63 65 68 69 74 77
40 41 39 39 41 42 44 45 41 44 46 47 46 47 44 44 42 43 43 44 45 44 45 47 51 53 55 58 60 60 61 61 62 62 62 63 65 67 69 71 73 75 76 78
45 44 43 42 43 45 44 42 45 46 48 49 50 50 50 49 47 46 47 46 45 46 49 51 54 57 60 62 65 66 66 67 67 68 68 70 72 74 76 78 79 80 81 82
47 47 48 46 46 44 45 45 47 48 52 53 53 53 54 54 50 50 51 50 50 51 53 56 60 64 66 67 70 70 71 71 72 73 75 77 78 79 80 80 80 79 79 80
50 51 51 49 49 49 49 48 51 54 52 51 55 57 59 54 51 50 49 50 53 56 59 61 63 66 69 72 73 74 76 76 77 78 80 80 81 81 81 82 83 82 83 84
54 55 53 54 55 58 54 51 52 51 53 58 58 59 55 52 51 50 53 55 58 60 63 66 69 72 75 76 76 77 78 79 81 83 83 83 83 83 83 82 83 84 84 86
60 57 59 58 58 59 58 56 53 54 58 58 61 54 52 51 53 55 57 60 62 65 67 70 73 76 78 78 79 80 81 81 81 82 83 83 84 84 84 85 87 88 89 91
63 61 60 62 63 64 63 62 59 60 57 60 56 55 50 55 56 60 62 66 67 68 72 75 76 76 76 77 79 80 81 82 83 84 85 86 86 86 87 88 90 91 93 94
64 64 63 65 65 63 61 57 61 57 57 58 58 57 55 60 63 64 66 68 70 73 77 78 77 78 78 79 80 80 81 82 84 85 86 86 87 88 90 91 91 91 91 89
64 64 64 65 63 59 62 62 55 56 56 57 60 58 64 64 66 67 69 73 75 75 75 75 76 75 75 76 78 79 82 84 85 86 87 88 89 90 90 90 87 82 77 73
58 62 60 57 54 60 62 59 59 58 54 55 62 66 69 71 70 70 74 77 77 75 74 74 73 74 75 78 80 82 84 85 86 88 89 89 88 87 83 78 73 68 66 64
56 56 58 56 56 58 60 60 59 59 57 63 67 71 72 72 72 73 74 76 76 74 73 74 74 76 79 81 82 83 85 87 88 88 85 81 76 71 67 65 63 62 62 63
55 56 53 55 60 61 56 56 63 68 69 69 69 70 71 72 72 70 75 74 73 72 74 76 78 79 81 83 85 86 86 84 81 76 70 66 64 61 60 60 62 62 63 62
57 59 58 61 63 67 65 62 67 72 69 69 70 71 72 72 73 72 73 73 74 74 75 79 81 83 86 86 84 80 75 71 66 62 61 60 59 59 61 61 61 61 62 63
62 62 64 63 64 69 65 66 69 70 71 69 69 70 69 70 72 71 71 73 75 77 80 83 84 83 80 76 72 68 64 61 59 58 58 58 59 59 59 59 62 65 66 67
62 61 61 64 65 64 65 66 67 68 67 66 65 67 69 69 69 71 74 76 77 78 78 75 72 70 69 66 61 58 57 56 56 57 58 59 59 60 61 62 64 66 67 67
59 56 58 59 60 62 66 67 65 67 66 64 64 66 70 71 73 73 73 72 68 66 66 65 64 64 60 57 56 55 56 56 58 58 60 61 61 61 62 62 63 63 64 64
52 55 56 56 57 61 62 62 64 64 63 64 67 70 72 73 71 67 63 62 62 61 61 60 58 55 53 54 55 56 57 57 58 59 61 61 60 60 60 60 58 57 58 57
41 46 52 57 59 60 59 61 64 65 66 69 70 68 65 63 60 61 61 60 60 58 56 54 52 53 53 54 55 56 57 58 59 60 60 60 60 59 56 53 50 49 52 55
Wind_Direction
272 274 279 275 273 276 275 277 281 283 279 282 283 284 281 282 278 277 277 277 274 271 270 273 278 283 287 287 287 287 284 281 281 281 280 279 280 280 282 281 277 272 271 270
273 271 275 274 273 273 274 276 278 279 280 284 285 282 282 281 283 283 281 277 275 274 273 276 276 276 275 275 277 278 280 284 285 285 283 282 279 278 277 278 279 279 274 269
272 271 270 272 273 274 274 277 279 280 280 277 277 277 277 278 279 276 277 277 276 276 276 277 277 278 278 276 275 276 276 277 278 280 282 282 280 278 275 275 275 275 275 275
268 270 269 269 268 268 269 273 275 276 275 273 274 281 275 275 276 277 274 275 275 273 273 274 276 277 277 279 279 278 277 278 278 278 280 282 280 280 276 277 278 277 275 274
267 265 263 265 265 263 266 269 271 271 271 274 277 282 289 278 280 276 276 275 276 277 276 275 275 275 276 278 280 283 284 286 286 287 286 283 280 279 275 275 271 273 274 274
263 261 260 259 260 263 267 268 268 269 271 276 280 281 288 290 281 280 276 276 275 273 273 276 275 275 277 277 281 283 286 285 287 286 283 283 282 278 275 272 272 268 266 268
259 259 257 258 261 263 264 263 264 269 272 281 282 280 285 288 287 281 279 277 275 278 281 279 277 278 278 282 281 283 283 284 282 280 280 278 275 273 271 269 267 263 264 265
258 257 258 259 261 262 262 264 266 272 275 278 280 285 287 286 283 281 280 281 283 285 284 282 283 285 286 287 288 287 287 286 284 282 279 278 276 274 274 273 272 271 270 269
255 256 258 259 260 259 261 264 267 266 269 275 283 284 282 280 280 279 281 282 281 283 284 284 283 284 286 289 289 290 289 288 286 283 281 280 280 280 278 276 274 274 273 272
258 259 259 259 261 262 263 266 265 267 272 273 276 282 280 280 281 284 283 283 283 284 284 283 283 284 284 284 286 286 285 284 283 283 283 283 282 281 281 280 279 280 279 279
264 265 265 265 266 263 262 263 265 267 267 271 275 276 275 275 281 283 284 285 285 284 283 281 282 284 287 286 285 284 284 284 285 285 284 284 284 284 285 286 286 285 284 283
263 264 264 266 269 266 258 260 267 264 266 268 267 272 275 281 285 285 283 283 283 282 282 282 282 283 283 282 283 284 284 284 284 284 284 284 285 285 285 284 284 284 284 284
264 263 264 263 266 268 270 266 265 261 260 262 264 274 278 279 279 281 283 282 281 281 282 281 280 280 280 280 281 282 283 282 282 283 285 286 287 289 290 290 290 288 288 287
261 260 262 262 264 263 261 261 260 261 263 268 270 274 277 279 279 282 282 280 279 279 279 280 280 279 280 282 284 284 284 285 287 289 291 292 292 293 292 291 290 289 289 288
258 257 254 259 261 262 264 263 263 263 265 266 274 275 281 281 280 279 279 280 282 283 282 280 279 281 284 286 287 288 289 290 291 292 292 292 292 291 290 289 289 289 288 287
249 252 256 258 261 261 260 263 265 270 273 275 277 280 282 278 277 279 279 281 283 282 281 281 283 285 286 287 287 289 290 290 291 290 290 290 291 291 290 291 291 290 290 290
247 253 256 256 258 261 261 266 273 276 277 278 280 284 278 278 277 278 279 280 281 282 283 285 285 286 287 288 288 289 289 289 290 291 291 291 292 293 293 293 293 292 291 290
255 254 253 257 262 264 268 273 276 280 279 279 277 274 275 277 275 276 278 280 283 285 286 285 285 286 287 287 288 289 291 292 293 293 293 294 294 294 293 292 292 293 293 293
252 250 254 267 274 275 276 283 285 278 275 275 274 275 276 277 278 280 282 282 283 284 285 285 286 286 288 290 292 292 293 293 294 294 294 294 293 292 292 293 294 293 294 294
255 260 262 264 267 271 281 277 279 278 278 278 278 277 278 278 280 281 280 282 284 285 286 287 289 290 291 292 292 293 293 293 293 292 292 291 291 292 292 292 293 293 293 294
251 253 261 270 271 274 280 280 279 273 281 276 275 275 276 278 279 280 282 283 284 286 288 289 291 291 291 291 292 292 291 291 291 289 289 290 290 291 292 292 292 292 292 294
252 260 264 271 272 274 281 280 279 277 277 276 275 276 277 279 280 282 284 285 285 287 289 291 291 291 291 291 290 290 290 289 289 288 288 289 290 291 292 293 294 295 296 297
263 267 271 272 277 280 280 278 275 274 274 275 276 278 278 279 282 284 285 288 291 292 292 291 292 291 290 290 291 290 288 288 287 288 289 290 291 292 293 293 294 295 296 297
269 274 275 276 278 278 275 273 274 274 276 279 280 281 282 284 284 287 290 292 292 292 293 292 291 290 291 291 290 289 288 288 289 290 291 291 291 292 293 295 295 296 296 297
275 278 278 275 274 271 270 272 274 277 280 282 282 282 284 286 290 292 291 292 293 294 293 292 291 291 291 291 292 292 292 292 291 291 291 293 294 295 296 297 297 295 296 299
278 272 269 268 267 270 274 278 280 281 281 282 284 286 289 289 289 291 294 294 294 293 291 289 288 289 291 293 293 294 294 294 294 294 294 294 295 296 296 297 296 298 300 301
Height
5800 5800 5804 5803 5800 5800 5801 5802 5802 5804 5801 5800 5802 5800 5799 5799 5800 5799 5798 5798 5798 5797 5796 5796 5796 5796 5795 5793 5792 5790 5790 5788 5788 5787 5785 5783 5782 5780 5779 5778 5777 5777 5776 5775
5793 5792 5794 5793 5792 5792 5793 5793 5794 5793 5792 5792 5792 5792 5792 5790 5789 5789 5789 5789 5789 5789 5789 5789 5788 5787 5787 5786 5785 5783 5781 5779 5777 5776 5774 5773 5772 5770 5768 5767 5765 5764 5762 5762
5783 5782 5783 5783 5784 5783 5783 5784 5784 5783 5783 5783 5783 5784 5784 5784 5783 5782 5781 5780 5779 5779 5779 5779 5778 5778 5778 5778 5776 5775 5773 5771 5769 5767 5765 5763 5762 5760 5758 5755 5753 5751 5750 5748
5770 5773 5772 5772 5774 5775 5772 5774 5774 5775 5774 5774 5773 5771 5776 5777 5775 5775 5774 5773 5772 5771 5770 5769 5769 5769 5769 5768 5766 5765 5763 5762 5760 5758 5756 5754 5751 5749 5747 5746 5743 5741 5738 5735
5761 5760 5761 5763 5764 5763 5766 5765 5764 5764 5764 5764 5765 5763 5761 5767 5767 5765 5765 5764 5765 5765 5764 5763 5761 5759 5758 5757 5755 5753 5752 5751 5749 5747 5745 5742 5740 5738 5736 5734 5732 5730 5727 5723
5750 5751 5752 5753 5754 5755 5757 5757 5756 5754 5753 5752 5757 5755 5750 5754 5758 5757 5756 5754 5754 5754 5753 5753 5751 5750 5747 5744 5742 5741 5740 5737 5735 5733 5731 5729 5727 5725 5722 5719 5717 5714 5711 5708
5741 5742 5743 5744 5746 5747 5748 5747 5745 5745 5745 5745 5743 5743 5745 5743 5744 5745 5746 5745 5744 5744 5742 5740 5738 5735 5733 5731 5729 5728 5727 5724 5721 5719 5717 5714 5711 5709 5706 5704 5700 5697 5694 5690
5731 5733 5734 5735 5737 5738 5736 5736 5735 5735 5734 5734 5734 5733 5735 5735 5735 5734 5733 5732 5731 5730 5728 5726 5723 5720 5718 5716 5715 5712 5710 5709 5706 5703 5700 5697 5696 5695 5692 5688 5685 5681 5678 5675
5721 5721 5724 5725 5725 5726 5725 5724 5728 5724 5722 5722 5724 5723 5723 5723 5723 5722 5723 5722 5719 5717 5715 5712 5709 5706 5704 5702 5700 5697 5695 5693 5690 5687 5684 5681 5678 5675 5673 5670 5666 5662 5658 5654
5709 5711 5713 5713 5714 5714 5715 5716 5713 5712 5712 5712 5714 5714 5709 5710 5711 5713 5711 5709 5708 5706 5702 5698 5695 5692 5690 5688 5685 5683 5679 5676 5673 5670 5667 5663 5659 5655 5649 5645 5642 5640 5636 5632
5696 5698 5700 5700 5701 5704 5703 5700 5701 5703 5700 5700 5702 5702 5696 5698 5701 5699 5698 5697 5695 5692 5688 5685 5681 5678 5676 5672 5668 5664 5661 5658 5655 5652 5647 5643 5638 5634 5629 5625 5622 5618 5614 5610
5683 5683 5684 5687 5687 5688 5687 5689 5690 5688 5691 5690 5686 5689 5683 5688 5688 5686 5685 5684 5680 5676 5672 5670 5667 5663 5659 5654 5650 5647 5643 5639 5636 5631 5627 5622 5618 5615 5611 5606 5602 5598 5592 5588
5669 5668 5671 5671 5671 5673 5677 5680 5679 5678 5675 5672 5672 5676 5677 5676 5675 5674 5671 5667 5663 5660 5657 5654 5651 5647 5642 5637 5633 5629 5625 5621 5618 5613 5607 5603 5598 5593 5589 5584 5578 5574 5569 5564
5653 5654 5655 5657 5659 5660 5661 5665 5665 5663 5659 5658 5657 5663 5664 5661 5660 5659 5655 5650 5648 5645 5642 5639 5634 5628 5623 5619 5614 5609 5604 5600 5595 5591 5585 5580 5576 5571 5566 5561 5555 5550 5544 5538
5637 5638 5640 5643 5644 5644 5647 5652 5651 5647 5648 5640 5652 5649 5651 5646 5645 5640 5636 5632 5629 5628 5624 5618 5612 5608 5605 5599 5594 5589 5583 5579 5574 5569 5564 5558 5553 5547 5542 5538 5532 5527 5520 5514
5620 5623 5625 5626 5628 5629 5630 5639 5634 5634 5633 5630 5630 5635 5637 5629 5625 5623 5620 5615 5612 5610 5605 5600 5596 5591 5586 5581 5575 5571 5565 5559 5555 5549 5543 5537 5530 5525 5520 5514 5508 5502 5495 5488
5608 5609 5612 5610 5613 5612 5612 5625 5624 5621 5619 5620 5614 5622 5613 5613 5610 5608 5603 5599 5595 5589 5587 5584 5579 5574 5567 5562 5557 5552 5545 5539 5533 5527 5520 5514 5507 5500 5495 5488 5482 5476 5470 5464
5594 5596 5596 5595 5597 5589 5603 5608 5607 5603 5604 5603 5599 5598 5595 5592 5591 5590 5585 5581 5577 5574 5569 5565 5560 5556 5551 5544 5538 5531 5523 5516 5510 5503 5496 5489 5483 5477 5470 5464 5459 5454 5449 5444
5579 5582 5581 5577 5578 5579 5585 5588 5588 5583 5588 5583 5582 5580 5573 5573 5571 5573 5567 5562 5560 5555 5550 5545 5541 5536 5531 5523 5515 5509 5502 5495 5488 5480 5472 5466 5460 5455 5450 5445 5441 5436 5432 5428
5567 5568 5567 5565 5561 5560 5572 5570 5568 5562 5565 5569 5563 5560 5556 5555 5553 5556 5545 5546 5541 5536 5530 5525 5519 5515 5509 5501 5494 5487 5480 5473 5466 5458 5452 5447 5443 5438 5434 5431 5426 5421 5416 5413
5552 5552 5549 5549 5543 5541 5550 5552 5548 5543 5550 5547 5545 5544 5541 5538 5536 5535 5532 5528 5520 5514 5509 5504 5499 5494 5487 5480 5473 5466 5458 5453 5447 5441 5436 5431 5428 5424 5419 5416 5410 5406 5401 5396
5538 5535 5536 5532 5527 5522 5530 5528 5526 5523 5522 5525 5524 5523 5522 5520 5518 5515 5511 5506 5501 5497 5491 5485 5477 5471 5465 5459 5453 5447 5441 5435 5431 5426 5421 5417 5413 5409 5404 5400 5394 5388 5382 5378
5522 5524 5522 5517 5514 5510 5505 5503 5504 5502 5505 5506 5506 5504 5501 5500 5500 5496 5492 5487 5482 5477 5470 5462 5456 5452 5446 5439 5434 5430 5425 5421 5416 5412 5407 5403 5398 5393 5388 5383 5378 5372 5365 5361
5508 5509 5503 5500 5500 5493 5486 5483 5484 5482 5486 5488 5488 5486 5482 5481 5478 5477 5473 5468 5462 5456 5450 5444 5438 5433 5428 5423 5418 5415 5411 5407 5402 5397 5392 5387 5382 5377 5372 5367 5361 5356 5349 5344
5495 5492 5489 5485 5481 5473 5469 5467 5466 5466 5471 5471 5469 5466 5464 5461 5459 5455 5454 5449 5443 5438 5433 5427 5421 5416 5412 5407 5403 5399 5395 5390 5385 5381 5375 5370 5366 5361 5356 5351 5345 5340 5333 5328
5482 5475 5472 5466 5461 5453 5455 5452 5449 5450 5451 5451 5449 5448 5445 5440 5440 5436 5435 5431 5426 5422 5417 5412 5406 5402 5397 5393 5388 5383 5379 5373 5368 5363 5358 5353 5348 5344 5339 5335 5331 5324 5320 5314